Satellite: NOAA-16
Catalog number: 26536
Epoch time:      11215.74487709
Element set:    0388
Inclination:      099.1368 deg
RA of node:       247.2475 deg
Eccentricity:    0.0009710
Arg of perigee:   258.7558 deg
Mean anomaly:     101.2525 deg
Mean motion:   14.12633764 rev/day
Decay rate:      -1.68e-06 rev/day^2
Epoch rev:           56007
Checksum:              325

Satellite: NOAA-17
Catalog number: 27453
Epoch time:      11215.73584762
Element set:    0375
Inclination:      098.3761 deg
RA of node:       253.2570 deg
Eccentricity:    0.0011982
Arg of perigee:   015.2366 deg
Mean anomaly:     344.9174 deg
Mean motion:   14.24297316 rev/day
Decay rate:        2.6e-07 rev/day^2
Epoch rev:           47342
Checksum:              308

Satellite: NOAA-18
Catalog number: 28654
Epoch time:      11215.66474441
Element set:    0854
Inclination:      098.9992 deg
RA of node:       166.9366 deg
Eccentricity:    0.0014185
Arg of perigee:   335.2604 deg
Mean anomaly:     024.7888 deg
Mean motion:   14.11496687 rev/day
Decay rate:      -1.06e-06 rev/day^2
Epoch rev:           31962
Checksum:              345

Satellite: NOAA-19
Catalog number: 33591
Epoch time:      11215.74338226
Element set:    0045
Inclination:      098.8277 deg
RA of node:       155.1023 deg
Eccentricity:    0.0013680
Arg of perigee:   198.5868 deg
Mean anomaly:     161.4812 deg
Mean motion:   14.11190650 rev/day
Decay rate:       4.47e-06 rev/day^2
Epoch rev:           12809
Checksum:              302

/EX
SB KEPS @ AMSAT  $ORB11216.M
Orbital Elements  11216.MISC

HR AMSAT ORBITAL ELEMENTS FOR MANNED AND MISCELLANEOUS SATELLITES
FROM WA5QGD FORT WORTH,TX August 4, 2011
Send Subscribe/unsubscribe to KEPS at http://www.amsat.org/mailman/listinfo/kep
BID: ORB11216.M
TO ALL RADIO AMATEURS BT

Satellite: HUBBLE
Catalog number: 20580
Epoch time:      11215.04801577
Element set:     811
Inclination:      028.4710 deg
RA of node:       070.3193 deg
Eccentricity:    0.0003627
Arg of perigee:   254.6533 deg
Mean anomaly:     105.3631 deg
Mean motion:   15.01440311 rev/day
Decay rate:       7.41e-06 rev/day^2
Epoch rev:           96670
Checksum:              246

Satellite: ISS
Catalog number: 25544
Epoch time:      11216.87561343
Element set:     833
Inclination:      051.6390 deg
RA of node:       275.6758 deg
Eccentricity:    0.0013255
Arg of perigee:   039.1664 deg
Mean anomaly:     297.2604 deg
Mean motion:   15.60250576 rev/day
Decay rate:     2.4887e-04 rev/day^2
Epoch rev:           72850
Checksum:              316

Satellite: CO-58
Catalog number: 28895
Epoch time:      11215.62378121
Element set:    0940
Inclination:      097.9593 deg
RA of node:       090.1626 deg
Eccentricity:    0.0019049
Arg of perigee:   073.3431 deg
Mean anomaly:     286.9900 deg
Mean motion:   14.60141446 rev/day
Decay rate:       2.92e-06 rev/day^2
Epoch rev:           30716
Checksum:              313

Satellite: FALCON
Catalog number: 30776
Epoch time:      11215.94874055
Element set:    0144
Inclination:      035.4333 deg
RA of node:       056.5313 deg
Eccentricity:    0.0000341
Arg of perigee:   038.6331 deg
Mean anomaly:     321.4410 deg
Mean motion:   15.04793003 rev/day
Decay rate:      1.227e-05 rev/day^2
Epoch rev:           24224
Checksum:              241

Satellite: MAST
Catalog number: 31126
Epoch time:      11215.93980739
Element set:    0232
Inclination:      097.8947 deg
RA of node:       240.4637 deg
Eccentricity:    0.0095042
Arg of perigee:   022.7325 deg
Mean anomaly:     337.8036 deg
Mean motion:   14.53780050 rev/day
Decay rate:       2.84e-06 rev/day^2
Epoch rev:           22802
Checksum:              289

Satellite: CAPE1
Catalog number: 31130
Epoch time:      11215.97047944
Element set:    0241
Inclination:      097.8953 deg
RA of node:       237.1867 deg
Eccentricity:    0.0103069
Arg of perigee:   033.4863 deg
Mean anomaly:     327.2789 deg
Mean motion:   14.52432433 rev/day
Decay rate:       2.19e-06 rev/day^2
Epoch rev:           22757
Checksum:              304

Satellite: COMPASS
Catalog number: 32787
Epoch time:      11215.66016561
Element set:    0056
Inclination:      097.8455 deg
RA of node:       278.5871 deg
Eccentricity:    0.0016318
Arg of perigee:   025.0844 deg
Mean anomaly:     335.1160 deg
Mean motion:   14.82519063 rev/day
Decay rate:       5.13e-06 rev/day^2
Epoch rev:           17659
Checksum:              301

Satellite: AAUSAT2
Catalog number: 32788
Epoch time:      11215.61779487
Element set:    0046
Inclination:      097.8433 deg
RA of node:       278.7833 deg
Eccentricity:    0.0015886
Arg of perigee:   025.6559 deg
Mean anomaly:     334.5485 deg
Mean motion:   14.82715395 rev/day
Decay rate:      1.396e-05 rev/day^2
Epoch rev:           17660
Checksum:              355

Satellite: DO-64
Catalog number: 32789
Epoch time:      11215.74633372
Element set:    0062
Inclination:      097.8535 deg
RA of node:       280.0085 deg
Eccentricity:    0.0015809
Arg of perigee:   023.6957 deg
Mean anomaly:     336.4979 deg
Mean motion:   14.83236136 rev/day
Decay rate:      1.553e-05 rev/day^2
Epoch rev:           17663
Checksum:              331

